ARG1784 SABE-SARI

Flight info

Callsign ARG1784
Flight time 1h 27m
Altitude 37000
Route LANDA4B LANDA UN785 GEMSU UT667 DOKBA DOKBA3M
Aircraft B738/M-MSDFGHILRVW/LB1

Departure

Time 2026-04-21 16:49
Airport Aeroparque Jorge Newbery (SABE)

Arrival

Time 2026-04-21 18:17
Airport Cataratas Del Iguazú International Airport (SARI)
Time Latitude Longitude Altitude Speed Heading
2026-04-21 16:06 -34.55718 -58.41404 28 ft 0 kts 31°
2026-04-21 16:40 -34.55739 -58.41419 27 ft 4 kts 22°
2026-04-21 16:41 -34.55759 -58.41423 28 ft 4 kts 312°
2026-04-21 16:41 -34.55773 -58.41400 30 ft 4 kts 304°
2026-04-21 16:41 -34.55780 -58.41387 24 ft 0 kts 304°
2026-04-21 16:44 -34.55778 -58.41390 24 ft 3 kts 304°
2026-04-21 16:44 -34.55747 -58.41446 30 ft 10 kts 300°
2026-04-21 16:44 -34.55720 -58.41516 24 ft 9 kts 283°
2026-04-21 16:44 -34.55753 -58.41573 24 ft 9 kts 215°
2026-04-21 16:45 -34.55789 -58.41624 27 ft 9 kts 279°
2026-04-21 16:45 -34.55763 -58.41689 24 ft 8 kts 297°
2026-04-21 16:45 -34.55737 -58.41751 25 ft 8 kts 297°
2026-04-21 16:45 -34.55706 -58.41811 25 ft 8 kts 304°
2026-04-21 16:46 -34.55682 -58.41855 26 ft 8 kts 304°
2026-04-21 16:46 -34.55649 -58.41912 25 ft 9 kts 304°
2026-04-21 16:46 -34.55610 -58.41982 28 ft 12 kts 304°
2026-04-21 16:46 -34.55561 -58.42068 24 ft 12 kts 307°
2026-04-21 16:47 -34.55510 -58.42149 25 ft 12 kts 307°
2026-04-21 16:47 -34.55467 -58.42218 26 ft 9 kts 307°
2026-04-21 16:47 -34.55428 -58.42280 25 ft 9 kts 307°
2026-04-21 16:47 -34.55390 -58.42341 25 ft 9 kts 307°
2026-04-21 16:48 -34.55366 -58.42407 26 ft 9 kts 280°
2026-04-21 16:48 -34.55364 -58.42477 24 ft 9 kts 243°
2026-04-21 16:48 -34.55419 -58.42481 25 ft 14 kts 124°
2026-04-21 16:48 -34.55592 -58.42173 29 ft 81 kts 123°
2026-04-21 16:49 -34.56043 -58.41363 27 ft 147 kts 124°
2026-04-21 16:49 -34.56681 -58.40220 425 ft 166 kts 123°
2026-04-21 16:49 -34.57346 -58.39048 1183 ft 173 kts 122°
2026-04-21 16:49 -34.57924 -58.37725 1804 ft 187 kts 109°
2026-04-21 16:50 -34.58002 -58.36120 2451 ft 196 kts 72°
2026-04-21 16:50 -34.57329 -58.34675 3201 ft 199 kts 46°
2026-04-21 16:50 -34.56235 -58.33612 3847 ft 207 kts 31°
2026-04-21 16:50 -34.54961 -58.32629 4264 ft 225 kts 30°
2026-04-21 16:51 -34.53581 -58.31645 4842 ft 237 kts 27°
2026-04-21 16:51 -34.52095 -58.30549 5282 ft 259 kts 31°
2026-04-21 16:51 -34.50565 -58.29308 6118 ft 269 kts 30°
2026-04-21 16:51 -34.48905 -58.28197 6888 ft 277 kts 17°
2026-04-21 16:52 -34.47056 -58.27725 7672 ft 276 kts 356°
2026-04-21 16:52 -34.45202 -58.28144 8574 ft 268 kts 333°
2026-04-21 16:52 -34.43656 -58.29375 9471 ft 265 kts 315°
2026-04-21 16:52 -34.42331 -58.30964 10199 ft 274 kts 314°
2026-04-21 16:53 -34.40884 -58.32540 10770 ft 285 kts 318°
2026-04-21 16:53 -34.39266 -58.34056 11188 ft 302 kts 323°
2026-04-21 16:53 -34.37455 -58.35471 11632 ft 318 kts 324°
2026-04-21 16:53 -34.35599 -58.37013 12163 ft 327 kts 322°
2026-04-21 16:54 -34.33757 -58.38629 13002 ft 329 kts 322°
2026-04-21 16:54 -34.31878 -58.40166 13810 ft 334 kts 323°
2026-04-21 16:54 -34.29949 -58.41763 14504 ft 337 kts 323°
2026-04-21 16:54 -34.28015 -58.43366 15237 ft 337 kts 323°
2026-04-21 16:55 -34.26086 -58.44988 15945 ft 339 kts 322°
2026-04-21 16:55 -34.24142 -58.46648 16538 ft 345 kts 323°
2026-04-21 16:55 -34.22166 -58.48323 17197 ft 348 kts 323°
2026-04-21 16:55 -34.20172 -58.49993 17891 ft 350 kts 323°
2026-04-21 16:56 -34.18150 -58.51671 18520 ft 354 kts 323°
2026-04-21 16:56 -34.16110 -58.53357 19100 ft 356 kts 323°
2026-04-21 16:56 -34.14055 -58.55043 19700 ft 358 kts 324°
2026-04-21 16:56 -34.11765 -58.56303 20271 ft 368 kts 340°
2026-04-21 16:57 -34.09208 -58.56749 20801 ft 377 kts 351°
2026-04-21 16:57 -34.06561 -58.56873 21379 ft 381 kts 352°
2026-04-21 16:57 -34.03940 -58.56956 21921 ft 385 kts 352°
2026-04-21 16:57 -34.01248 -58.57047 22453 ft 388 kts 352°
2026-04-21 16:58 -33.98510 -58.57158 22963 ft 390 kts 351°
2026-04-21 16:58 -33.95814 -58.57282 23479 ft 393 kts 351°
2026-04-21 16:58 -33.93073 -58.57416 23908 ft 396 kts 350°
2026-04-21 16:58 -33.90304 -58.57553 24331 ft 398 kts 350°
2026-04-21 16:59 -33.87528 -58.57681 24762 ft 400 kts 350°
2026-04-21 16:59 -33.84725 -58.57805 25140 ft 404 kts 350°
2026-04-21 16:59 -33.81905 -58.57927 25520 ft 406 kts 350°
2026-04-21 16:59 -33.79064 -58.58050 25921 ft 409 kts 350°
2026-04-21 17:00 -33.76253 -58.58171 26314 ft 411 kts 350°
2026-04-21 17:00 -33.73383 -58.58295 26698 ft 413 kts 350°
2026-04-21 17:00 -33.71434 -58.58379 26948 ft 415 kts 349°
2026-04-21 17:00 -33.67602 -58.58546 27429 ft 418 kts 349°
2026-04-21 17:01 -33.64679 -58.58673 27754 ft 420 kts 349°
2026-04-21 17:01 -33.61746 -58.58801 28075 ft 423 kts 349°
2026-04-21 17:01 -33.58789 -58.58929 28402 ft 426 kts 349°
2026-04-21 17:01 -33.55816 -58.59058 28740 ft 428 kts 349°
2026-04-21 17:02 -33.52835 -58.59187 29079 ft 430 kts 349°
2026-04-21 17:02 -33.49833 -58.59317 29399 ft 432 kts 349°
2026-04-21 17:02 -33.46819 -58.59447 29713 ft 434 kts 349°
2026-04-21 17:02 -33.43822 -58.59577 30016 ft 437 kts 349°
2026-04-21 17:03 -33.40748 -58.59710 30269 ft 438 kts 349°
2026-04-21 17:03 -33.37690 -58.59841 30523 ft 440 kts 349°
2026-04-21 17:03 -33.34627 -58.59973 30768 ft 442 kts 349°
2026-04-21 17:03 -33.31543 -58.60106 31002 ft 444 kts 349°
2026-04-21 17:04 -33.28452 -58.60239 31306 ft 444 kts 349°
2026-04-21 17:04 -33.25372 -58.60369 31673 ft 442 kts 348°
2026-04-21 17:04 -33.22299 -58.60500 32017 ft 441 kts 348°
2026-04-21 17:04 -33.19232 -58.60631 32284 ft 441 kts 348°
2026-04-21 17:05 -33.16207 -58.60761 32582 ft 440 kts 348°
2026-04-21 17:05 -33.13139 -58.60893 32897 ft 440 kts 348°
2026-04-21 17:05 -33.10079 -58.61026 33180 ft 440 kts 347°
2026-04-21 17:05 -33.07016 -58.61158 33458 ft 440 kts 347°
2026-04-21 17:06 -33.03952 -58.61286 33754 ft 440 kts 348°
2026-04-21 17:06 -33.00857 -58.61118 33998 ft 453 kts 356°
2026-04-21 17:06 -32.97723 -58.60379 34232 ft 467 kts
2026-04-21 17:06 -32.94615 -58.59250 34480 ft 468 kts
2026-04-21 17:07 -32.92555 -58.58471 34624 ft 469 kts
2026-04-21 17:07 -32.88388 -58.56883 34919 ft 469 kts
2026-04-21 17:07 -32.85277 -58.55709 35166 ft 468 kts
2026-04-21 17:07 -32.82173 -58.54553 35420 ft 467 kts
2026-04-21 17:08 -32.79114 -58.53427 35652 ft 466 kts
2026-04-21 17:08 -32.76007 -58.52292 35873 ft 466 kts
2026-04-21 17:08 -32.72911 -58.51167 36096 ft 465 kts
2026-04-21 17:08 -32.69814 -58.50042 36269 ft 465 kts
2026-04-21 17:09 -32.63587 -58.47784 36612 ft 467 kts
2026-04-21 17:09 -32.60479 -58.46656 36872 ft 466 kts
2026-04-21 17:09 -32.57376 -58.45529 37048 ft 467 kts
2026-04-21 17:10 -32.51137 -58.43270 37024 ft 468 kts
2026-04-21 17:10 -32.44976 -58.41034 37005 ft 464 kts
2026-04-21 17:11 -32.38824 -58.38811 37027 ft 461 kts
2026-04-21 17:11 -32.32707 -58.36605 37028 ft 459 kts
2026-04-21 17:12 -32.26592 -58.34403 37028 ft 459 kts
2026-04-21 17:12 -32.20464 -58.32200 37033 ft 460 kts
2026-04-21 17:13 -32.14314 -58.29991 37040 ft 463 kts
2026-04-21 17:13 -32.08133 -58.27774 37034 ft 466 kts
2026-04-21 17:14 -32.01953 -58.25557 37029 ft 467 kts
2026-04-21 17:14 -31.95714 -58.23322 37033 ft 469 kts
2026-04-21 17:15 -31.89451 -58.21082 37029 ft 470 kts
2026-04-21 17:15 -31.83216 -58.18856 37025 ft 472 kts
2026-04-21 17:16 -31.76907 -58.16607 37021 ft 474 kts
2026-04-21 17:16 -31.70594 -58.14360 37020 ft 476 kts
2026-04-21 17:17 -31.64231 -58.12097 37019 ft 476 kts
2026-04-21 17:17 -31.57891 -58.09845 37000 ft 476 kts
2026-04-21 17:18 -31.51573 -58.07604 36999 ft 476 kts
2026-04-21 17:18 -31.45230 -58.05358 36995 ft 476 kts
2026-04-21 17:19 -31.38899 -58.03120 36983 ft 474 kts
2026-04-21 17:19 -31.32576 -58.00887 36987 ft 474 kts
2026-04-21 17:20 -31.26276 -57.98666 36996 ft 472 kts
2026-04-21 17:20 -31.21035 -57.96821 36993 ft 472 kts
2026-04-21 17:21 -31.14739 -57.94608 36984 ft 472 kts
2026-04-21 17:21 -31.08453 -57.92402 36983 ft 471 kts
2026-04-21 17:22 -31.02223 -57.90217 37007 ft 471 kts
2026-04-21 17:22 -30.95933 -57.88016 37022 ft 472 kts
2026-04-21 17:23 -30.89631 -57.85813 37019 ft 472 kts
2026-04-21 17:23 -30.83327 -57.83611 37015 ft 473 kts
2026-04-21 17:24 -30.77017 -57.81410 37023 ft 474 kts
2026-04-21 17:24 -30.70721 -57.79217 37018 ft 475 kts
2026-04-21 17:25 -30.64377 -57.77003 37020 ft 476 kts
2026-04-21 17:25 -30.58031 -57.74778 37016 ft 476 kts
2026-04-21 17:26 -30.51680 -57.72556 37014 ft 477 kts
2026-04-21 17:26 -30.45308 -57.70330 37012 ft 478 kts
2026-04-21 17:27 -30.38937 -57.68107 37019 ft 478 kts
2026-04-21 17:27 -30.32617 -57.65904 37001 ft 477 kts
2026-04-21 17:28 -30.26245 -57.63364 37011 ft 492 kts 15°
2026-04-21 17:28 -30.23285 -57.61382 37017 ft 505 kts 24°
2026-04-21 17:28 -30.20388 -57.59082 37016 ft 507 kts 25°
2026-04-21 17:29 -30.14621 -57.54355 37015 ft 507 kts 25°
2026-04-21 17:29 -30.08848 -57.49666 37018 ft 506 kts 25°
2026-04-21 17:30 -30.03053 -57.45042 37015 ft 505 kts 24°
2026-04-21 17:30 -29.97261 -57.40456 37024 ft 504 kts 24°
2026-04-21 17:31 -29.91500 -57.35904 37014 ft 505 kts 24°
2026-04-21 17:31 -29.85707 -57.31328 37015 ft 505 kts 24°
2026-04-21 17:32 -29.79914 -57.26755 37017 ft 504 kts 24°
2026-04-21 17:32 -29.74122 -57.22189 37000 ft 504 kts 24°
2026-04-21 17:33 -29.68338 -57.17637 36994 ft 503 kts 24°
2026-04-21 17:33 -29.62555 -57.13092 36995 ft 503 kts 24°
2026-04-21 17:34 -29.56775 -57.08557 36990 ft 503 kts 25°
2026-04-21 17:34 -29.51026 -57.04051 37017 ft 503 kts 25°
2026-04-21 17:35 -29.45247 -56.99529 37014 ft 503 kts 25°
2026-04-21 17:35 -29.39454 -56.95002 37013 ft 503 kts 24°
2026-04-21 17:36 -29.33670 -56.90488 37008 ft 503 kts 24°
2026-04-21 17:36 -29.27869 -56.85967 37008 ft 504 kts 24°
2026-04-21 17:37 -29.22070 -56.81454 37001 ft 504 kts 25°
2026-04-21 17:37 -29.16263 -56.76941 37009 ft 504 kts 25°
2026-04-21 17:38 -29.10497 -56.72466 37000 ft 504 kts 25°
2026-04-21 17:38 -29.04690 -56.67964 37008 ft 504 kts 25°
2026-04-21 17:39 -28.98871 -56.63461 37007 ft 504 kts 25°
2026-04-21 17:39 -28.93071 -56.58977 37009 ft 504 kts 25°
2026-04-21 17:40 -28.87265 -56.54494 37003 ft 504 kts 25°
2026-04-21 17:40 -28.81448 -56.50014 36987 ft 503 kts 25°
2026-04-21 17:41 -28.75683 -56.45580 37005 ft 503 kts 25°
2026-04-21 17:41 -28.69876 -56.41117 37009 ft 503 kts 25°
2026-04-21 17:42 -28.64073 -56.36664 37007 ft 502 kts 25°
2026-04-21 17:42 -28.58267 -56.32213 37009 ft 502 kts 25°
2026-04-21 17:43 -28.52471 -56.27777 37005 ft 502 kts 25°
2026-04-21 17:43 -28.46662 -56.23336 37007 ft 502 kts 25°
2026-04-21 17:44 -28.40863 -56.18909 37010 ft 502 kts 25°
2026-04-21 17:44 -28.35068 -56.14491 37011 ft 502 kts 25°
2026-04-21 17:45 -28.29298 -56.10099 37023 ft 502 kts 25°
2026-04-21 17:45 -28.23486 -56.05680 37002 ft 502 kts 25°
2026-04-21 17:46 -28.17673 -56.01265 36998 ft 502 kts 26°
2026-04-21 17:46 -28.11864 -55.96859 37007 ft 502 kts 26°
2026-04-21 17:47 -28.06095 -55.92475 37012 ft 501 kts 26°
2026-04-21 17:47 -28.00284 -55.88088 37007 ft 501 kts 25°
2026-04-21 17:48 -27.94478 -55.83710 37011 ft 501 kts 25°
2026-04-21 17:48 -27.88680 -55.79336 37002 ft 501 kts 26°
2026-04-21 17:49 -27.82917 -55.74994 37008 ft 501 kts 26°
2026-04-21 17:49 -27.77110 -55.70624 37012 ft 501 kts 26°
2026-04-21 17:50 -27.71305 -55.66262 36914 ft 503 kts 26°
2026-04-21 17:50 -27.68374 -55.64064 36389 ft 507 kts 26°
2026-04-21 17:50 -27.65437 -55.61858 35834 ft 506 kts 26°
2026-04-21 17:51 -27.62512 -55.59663 35227 ft 506 kts 26°
2026-04-21 17:51 -27.59572 -55.57461 34709 ft 505 kts 26°
2026-04-21 17:51 -27.56655 -55.55275 34212 ft 502 kts 26°
2026-04-21 17:51 -27.53792 -55.53132 33768 ft 498 kts 27°
2026-04-21 17:52 -27.50914 -55.50978 33288 ft 495 kts 27°
2026-04-21 17:52 -27.48059 -55.48843 32841 ft 491 kts 27°
2026-04-21 17:52 -27.45228 -55.46728 32402 ft 487 kts 27°
2026-04-21 17:52 -27.42412 -55.44626 31964 ft 483 kts 27°
2026-04-21 17:53 -27.39623 -55.42545 31539 ft 479 kts 27°
2026-04-21 17:53 -27.36849 -55.40477 31113 ft 476 kts 27°
2026-04-21 17:53 -27.34099 -55.38428 30681 ft 472 kts 27°
2026-04-21 17:53 -27.31367 -55.36394 30263 ft 468 kts 27°
2026-04-21 17:54 -27.28666 -55.34384 29794 ft 465 kts 27°
2026-04-21 17:54 -27.25975 -55.32383 29303 ft 461 kts 27°
2026-04-21 17:54 -27.23315 -55.30405 28852 ft 456 kts 27°
2026-04-21 17:54 -27.20680 -55.28447 28423 ft 452 kts 27°
2026-04-21 17:55 -27.18072 -55.26510 27978 ft 448 kts 27°
2026-04-21 17:55 -27.15554 -55.24642 27552 ft 444 kts 28°
2026-04-21 17:55 -27.12956 -55.22715 27126 ft 439 kts 28°
2026-04-21 17:55 -27.10453 -55.20859 26717 ft 435 kts 28°
2026-04-21 17:56 -27.07937 -55.18996 26306 ft 431 kts 28°
2026-04-21 17:56 -27.05438 -55.17146 25899 ft 428 kts 28°
2026-04-21 17:56 -27.02956 -55.15310 25471 ft 424 kts 28°
2026-04-21 17:56 -27.00500 -55.13494 25073 ft 421 kts 28°
2026-04-21 17:57 -26.98895 -55.12307 24787 ft 420 kts 28°
2026-04-21 17:57 -26.96465 -55.10512 24379 ft 417 kts 28°
2026-04-21 17:57 -26.94055 -55.08732 23947 ft 414 kts 28°
2026-04-21 17:57 -26.91662 -55.06965 23543 ft 411 kts 28°
2026-04-21 17:58 -26.89297 -55.05221 23071 ft 409 kts 29°
2026-04-21 17:58 -26.86942 -55.03484 22659 ft 406 kts 29°
2026-04-21 17:58 -26.84582 -55.01744 22218 ft 403 kts 29°
2026-04-21 17:58 -26.82251 -55.00027 21801 ft 400 kts 29°
2026-04-21 17:59 -26.79938 -54.98323 21393 ft 396 kts 29°
2026-04-21 17:59 -26.77645 -54.96635 20998 ft 392 kts 29°
2026-04-21 17:59 -26.75377 -54.94966 20604 ft 388 kts 29°
2026-04-21 17:59 -26.73124 -54.93309 20230 ft 385 kts 30°
2026-04-21 18:00 -26.70887 -54.91666 19825 ft 383 kts 30°
2026-04-21 18:00 -26.68663 -54.90032 19439 ft 380 kts 30°
2026-04-21 18:00 -26.66459 -54.88414 19040 ft 378 kts 30°
2026-04-21 18:00 -26.64289 -54.86820 18666 ft 376 kts 30°
2026-04-21 18:01 -26.62107 -54.85219 18251 ft 375 kts 30°
2026-04-21 18:01 -26.59924 -54.83619 17853 ft 373 kts 30°
2026-04-21 18:01 -26.57727 -54.82078 17435 ft 371 kts 23°
2026-04-21 18:01 -26.55292 -54.81273 17093 ft 363 kts
2026-04-21 18:02 -26.53631 -54.81062 16864 ft 361 kts
2026-04-21 18:02 -26.50279 -54.80737 16294 ft 361 kts
2026-04-21 18:02 -26.47824 -54.80513 15923 ft 357 kts
2026-04-21 18:02 -26.45360 -54.80280 15548 ft 353 kts
2026-04-21 18:03 -26.42929 -54.80040 15178 ft 346 kts
2026-04-21 18:03 -26.40562 -54.79798 14805 ft 337 kts
2026-04-21 18:03 -26.38254 -54.79558 14445 ft 328 kts
2026-04-21 18:03 -26.36002 -54.79322 14107 ft 324 kts
2026-04-21 18:04 -26.33756 -54.79087 13750 ft 323 kts
2026-04-21 18:04 -26.31525 -54.78853 13368 ft 321 kts
2026-04-21 18:04 -26.29301 -54.78620 13001 ft 319 kts
2026-04-21 18:04 -26.27124 -54.78391 12640 ft 317 kts
2026-04-21 18:05 -26.24928 -54.78159 12298 ft 315 kts
2026-04-21 18:05 -26.22753 -54.77930 11953 ft 312 kts
2026-04-21 18:05 -26.20596 -54.77704 11605 ft 310 kts
2026-04-21 18:05 -26.18460 -54.77520 11353 ft 305 kts
2026-04-21 18:06 -26.16344 -54.77379 11030 ft 303 kts
2026-04-21 18:06 -26.14244 -54.77249 10706 ft 301 kts
2026-04-21 18:06 -26.12159 -54.77120 10413 ft 298 kts
2026-04-21 18:06 -26.10799 -54.77034 10332 ft 292 kts
2026-04-21 18:07 -26.08799 -54.76905 10200 ft 284 kts
2026-04-21 18:07 -26.06850 -54.76778 10073 ft 276 kts
2026-04-21 18:07 -26.04940 -54.76654 9821 ft 274 kts
2026-04-21 18:07 -26.03038 -54.76530 9519 ft 273 kts
2026-04-21 18:08 -26.01152 -54.76406 9234 ft 271 kts
2026-04-21 18:08 -25.98678 -54.76244 8866 ft 268 kts
2026-04-21 18:08 -25.97409 -54.76160 8676 ft 267 kts
2026-04-21 18:08 -25.95580 -54.76040 8395 ft 266 kts
2026-04-21 18:09 -25.93733 -54.75918 8118 ft 264 kts
2026-04-21 18:09 -25.91908 -54.75797 7872 ft 263 kts
2026-04-21 18:09 -25.90075 -54.75676 7590 ft 264 kts
2026-04-21 18:09 -25.88228 -54.75555 7305 ft 266 kts
2026-04-21 18:10 -25.86379 -54.75433 7036 ft 265 kts
2026-04-21 18:10 -25.84540 -54.75312 6757 ft 264 kts
2026-04-21 18:10 -25.82715 -54.75191 6465 ft 262 kts
2026-04-21 18:10 -25.80896 -54.75071 6175 ft 261 kts
2026-04-21 18:11 -25.79089 -54.74951 5900 ft 260 kts
2026-04-21 18:11 -25.77304 -54.74833 5669 ft 258 kts
2026-04-21 18:11 -25.75539 -54.74717 5516 ft 251 kts
2026-04-21 18:11 -25.73828 -54.74603 5410 ft 241 kts
2026-04-21 18:12 -25.72184 -54.74494 5324 ft 232 kts
2026-04-21 18:12 -25.70593 -54.74300 5238 ft 231 kts 14°
2026-04-21 18:12 -25.69220 -54.73319 5054 ft 246 kts 45°
2026-04-21 18:12 -25.68318 -54.71679 4805 ft 252 kts 62°
2026-04-21 18:13 -25.67650 -54.69909 4487 ft 250 kts 64°
2026-04-21 18:13 -25.67011 -54.68153 4243 ft 240 kts 64°
2026-04-21 18:13 -25.66424 -54.66444 4003 ft 236 kts 73°
2026-04-21 18:13 -25.66497 -54.64652 3787 ft 236 kts 105°
2026-04-21 18:14 -25.67809 -54.61391 3343 ft 226 kts 112°
2026-04-21 18:14 -25.68463 -54.59875 3182 ft 207 kts 112°
2026-04-21 18:14 -25.69054 -54.58491 3066 ft 190 kts 111°
2026-04-21 18:15 -25.69582 -54.57248 3036 ft 173 kts 109°
2026-04-21 18:15 -25.70105 -54.56000 2693 ft 181 kts 111°
2026-04-21 18:15 -25.70641 -54.54724 2317 ft 184 kts 111°
2026-04-21 18:15 -25.71184 -54.53432 1955 ft 186 kts 111°
2026-04-21 18:16 -25.71723 -54.52139 1660 ft 180 kts 113°
2026-04-21 18:16 -25.72226 -54.50942 1500 ft 168 kts 112°
2026-04-21 18:16 -25.72720 -54.49761 1175 ft 167 kts 114°
2026-04-21 18:16 -25.73199 -54.48624 934 ft 157 kts 114°
2026-04-21 18:17 -25.73607 -54.47633 929 ft 117 kts 115°
2026-04-21 18:17 -25.73843 -54.47067 928 ft 33 kts 115°
2026-04-21 18:17 -25.73885 -54.46919 930 ft 9 kts 94°
2026-04-21 18:17 -25.73904 -54.46852 930 ft 10 kts 155°
2026-04-21 18:18 -25.73922 -54.46897 928 ft 9 kts 302°
2026-04-21 18:18 -25.73881 -54.46979 930 ft 13 kts 292°
2026-04-21 18:18 -25.73844 -54.47070 928 ft 13 kts 295°
2026-04-21 18:18 -25.73807 -54.47158 928 ft 12 kts 295°
2026-04-21 18:19 -25.73761 -54.47244 927 ft 13 kts 313°
2026-04-21 18:19 -25.73690 -54.47304 926 ft 13 kts 323°
2026-04-21 18:19 -25.73620 -54.47362 926 ft 12 kts 323°
2026-04-21 18:19 -25.73550 -54.47415 925 ft 12 kts 324°
2026-04-21 18:20 -25.73482 -54.47468 929 ft 12 kts 324°
2026-04-21 18:20 -25.73417 -54.47520 928 ft 11 kts 324°
2026-04-21 18:20 -25.73353 -54.47571 926 ft 11 kts 324°
2026-04-21 18:20 -25.73298 -54.47629 926 ft 11 kts 299°
2026-04-21 18:21 -25.73268 -54.47703 927 ft 10 kts 295°
2026-04-21 18:21 -25.73245 -54.47728 927 ft 2 kts 27°
2026-04-21 18:21 -25.73229 -54.47719 926 ft 3 kts 26°
2026-04-21 18:21 -25.73211 -54.47709 928 ft 2 kts 26°
2026-04-21 18:22 -25.73210 -54.47709 926 ft 0 kts 26°